Regional Weather Roundup
Issued by NWS Charleston, WV

Home | Current Version | Previous Version | Text Only | Print | Product List | Glossary Off
Versions: 1 2 3 4 5 6 7 8 9 10 11 12 13 14 15 16 17 18 19 20 21 22 23 24 25 26 27 28 29 30 31 32 33 34 35 36 37 38 39 40 41 42 43 44 45 46 47 48 49 50

000
ASUS41 KRLX 271510
RWRRLX
West Virginia Regional Weather Roundup
National Weather Service Charleston WV
1100 AM EDT SUN JUL 27 2014

Note: "fair" indicates few or no clouds below 12,000 feet with no
significant weather and/or obstructions to visibility.

WVZ003-271600-
Northern Panhandle of West Virginia

CITY           SKY/WX    TMP DP  RH WIND       PRES   REMARKS
WHEELING       CLOUDY    77  69  76 SW12      29.84S
$$

WVZ009-271600-
Northwest West Virginia

CITY           SKY/WX    TMP DP  RH WIND       PRES   REMARKS
PARKERSBURG    MOSUNNY  N/A N/A N/A SW7       29.90
$$

WVZ006-271600-
Western West Virginia

CITY           SKY/WX    TMP DP  RH WIND       PRES   REMARKS
HUNTINGTON     RAIN      70  66  87 W20G32    29.90F
$$

WVZ015-271600-
West Central West Virginia

CITY           SKY/WX    TMP DP  RH WIND       PRES   REMARKS
CHARLESTON     CLOUDY    73  70  90 S10       29.91S FOG
$$

WVZ031-271600-
North Central West Virginia

CITY           SKY/WX    TMP DP  RH WIND       PRES   REMARKS
CLARKSBURG     PTSUNNY   76  66  71 SW13      29.88F
MORGANTOWN     CLOUDY    78  67  68 SW12      29.88F
$$

WVZ035-042-045-271600-
South Central West Virginia

CITY           SKY/WX    TMP DP  RH WIND       PRES   REMARKS
BECKLEY        CLOUDY    69  66  90 SW10      30.01F
BLUEFIELD      CLOUDY    71  65  81 SW5       30.04F
LEWISBURG      RAIN      71  67  87 SW6       30.00S
$$

WVZ047-271600-
Northern Mountains of West Virginia

CITY           SKY/WX    TMP DP  RH WIND       PRES   REMARKS
ELKINS         CLOUDY    76  63  64 SW6       29.94S
$$

WVZ052-271600-
Eastern Panhandle of West Virginia

CITY           SKY/WX    TMP DP  RH WIND       PRES   REMARKS
MARTINSBURG    MOSUNNY   82  68  62 W13       29.83S
PETERSBURG     PTSUNNY   76  62  62 S12       29.86F
$$



USA.gov is the U.S. government's official web portal to all federal, state and local government web resources and services.